FLOCK 4A-10 (44097 NORAD) Tracking and Keplerian Element Data

This shows tracking and keplerian element data for the satellite.

Feedback or suggestion? Click here.




ElementValue
Catalog44097
NameFLOCK 4A-10
Epoch Orbit309
Epoch Day111.71932847
Epoch Year2019
RAAN172.116
Inclination97.4621
Eccentricity0.00107
Argument of Perigee215.0414
Mean Anonmoly145.0119
Mean Motion15.2201008
Decay Rate6.93E-06
L11 44097U 19018V 19111.71932847 .00000693 00000-0 33415-4 0 9995
L22 44097 97.4621 172.1160 0010700 215.0414 145.0119 15.22010080 3090

Live tracking and technical data element details for FLOCK 4A-10 (NORAD 44097). FLOCK 4A-10 can be tracked NOW for your location showing map with azimuth and elevation plus other details from your city location.

Track the satellite on the map from your city or location and see movement details for azimuth, elevation, latitude, longitude, range, height, and movement on the map or in text.







IsCatalogInMostPopularTable: catalog: 44097, numindb: 9
Update: records affected: 1



GetName: 44097 FLOCK 4A-10

Hit Count: updated at: Tue, 23 Apr 2019 02:50:20 GMT